Hourly Data Report for March 10, 2012

All times are specified in Local Standard Time (LST). Add 1 hour to adjust for Daylight Saving Time where and when it is observed.

HALIFAX STANFIELD INT'L A
NOVA SCOTIA

44°52'48.060" N
63°30'00.050" W
145.40 m
8202250
71395
YHZ

Download Data

Hourly Data (March 2012)
Hourly Data Report for March 10, 2012
TIME Temp Definition
°C
Dew Point Definition
°C
Rel Hum Definition
%
Wind Dir Definition
10's deg

Wind Spd Definition
km/h
Visibility Definition
km
Stn Press Definition
kPa
Hmdx Definition


Wind Chill Definition


Weather Definition


00:00 -2.6 -6.5 75 34 9 24.1 100.07   -6 Clear
01:00 -3.3 -7.1 75 34 11 24.1 100.09   -8 Clear
02:00 -4.3 -7.3 80 35 15 24.1 100.13   -10 Clear
03:00 -4.7 -8.3 76 34 9 24.1 100.17   -9 Clear
04:00 -4.8 -9.0 72 34 9 24.1 100.27   -9 Mainly Clear
05:00 -5.6 -9.3 75 35 9 24.1 100.37   -10 Mainly Clear
06:00 -6.0 -9.7 75 35 11 24.1 100.45   -11 Clear
07:00 -6.1 -9.3 78 35 9 24.1 100.54   -10 Clear
08:00 -4.4 -8.1 75 36 11 24.1 100.62   -9 Clear
09:00 -2.9 -7.5 71 35 19 24.1 100.69   -9 Mainly Clear
10:00 -2.1 -8.0 64 36 19 24.1 100.75   -8 Mainly Clear
11:00 -1.1 -7.9 60 36 11 24.1 100.79   -5 Mainly Clear
12:00 -0.1 -7.9 56 36 13 24.1 100.80   -4 Mainly Clear
13:00 0.6 -8.8 49 36 19 24.1 100.80     Clear
14:00 0.7 -8.6 50 1 19 24.1 100.79     Clear
15:00 1.0 -9.7 45 36 20 24.1 100.82     Clear
16:00 1.0 -10.2 43 36 19 24.1 100.88     Clear
17:00 0.3 -10.4 44 2 19 24.1 100.95     Clear
18:00 -1.6 -10.8 49 2 13 24.1 101.06   -6 Clear
19:00 -2.9 -9.5 60 2 9 24.1 101.14   -6 Clear
20:00 -3.7 -9.4 65 2 11 24.1 101.20   -8 Clear
21:00 -4.9 -9.4 71 5 7 24.1 101.23   -8 Clear
22:00 -5.4 -9.4 73 8 4 24.1 101.26   -7 Clear
23:00 -5.9 -9.2 77 14 6 24.1 101.31   -9 Clear

Notes on Data Quality.

Legend

  • E = Estimated
  • M = Missing
  • NA = Not Available
Date modified: